Lowell, ID

3:52 AM MDT on September 21, 2017 (GMT -0600)
Lowell

Weather History for KP69 - May, 2014

Change the Weather History Date:

Sunday, May 25, 2014

  Actual Average Record
Temperature  
Mean Temperature 63 °F -  
Max Temperature 78 °F 69 °F 88 °F (2001)
Min Temperature 48 °F 45 °F 39 °F (2002)
Degree Days  
Heating Degree Days 2    
Growing Degree Days 13 (Base 50)    
Moisture  
Dew Point 48 °F    
Average Humidity 69    
Maximum Humidity 96    
Minimum Humidity 25    
Precipitation  
Precipitation 0.00 in - - ()
Sea Level Pressure  
Sea Level Pressure 29.97 in    
Wind  
Wind Speed 0 mph (NNW)    
Max Wind Speed 6 mph    
Max Gust Speed -    
Averages and records for this station are not official NWS values.
T = Trace of Precipitation, MM = Missing Value Source: NWS Daily Summary

Daily Weather History Graph

Daily Weather History Graph

Search for Another Location

Airport or City:

Trip Planner

Search our weather history database for the weather conditions in past years. The results will help you decide how hot, cold, wet, or windy it might be!

Date:

Astronomy

May. 25, 2014 Rise Set
Actual Time 5:59 AM MDT 9:19 PM MDT
Civil Twilight 5:22 AM MDT 9:56 PM MDT
Nautical Twilight 4:35 AM MDT 10:44 PM MDT
Astronomical Twilight 3:34 AM MDT 11:45 PM MDT
Moon 4:18 AM MDT (5/25) 6:15 PM MDT (5/25)
Length of Visible Light 16h 33m
Length of Day
15h 20m
Waning Crescent, 10% of the Moon is Illuminated
May 25
Waning Crescent
May 28
New
Jun 5
First Quarter
Jun 12
Full
Jun 19
Last Quarter

Hourly Weather History & Observations

Time (MDT) Temp. Dew Point Humidity Pressure Visibility Wind Dir Wind Speed Gust Speed Precip Events Conditions
12:52 AM 53.1 °F 51.1 °F 93% 30.08 in - Calm Calm - N/A   Unknown
1:52 AM 51.1 °F 50.0 °F 96% 30.09 in - Calm Calm - N/A   Unknown
2:52 AM 50.0 °F 48.0 °F 93% 30.09 in - Calm Calm - N/A   Unknown
3:52 AM 48.9 °F 46.9 °F 93% 30.07 in - NNW 3.5 mph - N/A   Unknown
4:52 AM 48.9 °F 46.9 °F 93% 30.08 in - Calm Calm - N/A   Unknown
5:52 AM 48.9 °F 46.9 °F 93% 30.09 in - Calm Calm - N/A   Unknown
6:52 AM 48.0 °F 46.0 °F 93% 30.09 in - Calm Calm - N/A   Unknown
7:52 AM 50.0 °F 46.9 °F 89% 30.10 in - Calm Calm - N/A   Unknown
9:52 AM 59.0 °F 48.0 °F 67% 30.06 in - Calm Calm - N/A   Unknown
10:52 AM 62.1 °F 48.0 °F 60% 30.02 in - Calm Calm - N/A   Unknown
11:52 AM 64.9 °F 48.0 °F 54% 29.99 in - Calm Calm - N/A   Unknown
12:52 PM 69.1 °F 50.0 °F 51% 29.94 in - Calm Calm - N/A   Unknown
1:52 PM 72.0 °F 48.0 °F 43% 29.90 in - Calm Calm - N/A   Unknown
2:52 PM 75.0 °F 41.0 °F 29% 29.88 in - Calm Calm - N/A   Unknown
3:52 PM 78.1 °F 39.0 °F 25% 29.86 in - Variable 5.8 mph - N/A   Unknown
4:52 PM 77.0 °F 42.1 °F 29% 29.85 in - Variable 4.6 mph - N/A   Unknown
5:52 PM 73.9 °F 46.9 °F 38% 29.83 in - Calm Calm - N/A   Unknown
6:52 PM 71.1 °F 50.0 °F 47% 29.83 in - Calm Calm - N/A   Unknown
7:52 PM 66.9 °F 55.0 °F 66% 29.83 in - Calm Calm - N/A   Unknown
8:52 PM 63.0 °F 54.0 °F 72% 29.85 in - Calm Calm - N/A   Unknown
9:52 PM 57.9 °F 52.0 °F 81% 29.88 in - Calm Calm - N/A   Unknown
10:52 PM 55.0 °F 51.1 °F 86% 29.90 in - Calm Calm - N/A   Unknown
11:52 PM 54.0 °F 51.1 °F 90% 29.91 in - Calm Calm - N/A   Unknown